Wind_Speed
20 19 20 20 21 21 22 22 23 23 22 23 23 26 26 26 26 27 28 29 30 32 34 33 34 34 34 35 35 35 35 35 36 35 37 38 38 38 40 40 41 41 40 40
20 20 21 20 20 21 21 22 22 22 21 21 23 25 26 27 28 28 28 28 29 31 33 34 34 34 34 34 35 35 35 35 36 36 36 36 37 38 39 39 39 39 39 39
20 19 20 19 18 20 20 21 21 21 21 21 22 24 26 27 27 27 28 28 29 30 32 33 32 33 33 34 34 34 35 35 36 36 36 37 37 37 37 37 37 37 37 37
21 20 19 18 19 19 20 20 21 21 20 21 23 23 24 25 26 27 27 28 29 30 31 31 31 32 32 33 34 34 34 35 35 35 36 36 37 37 37 36 37 36 37 38
20 20 21 19 18 19 19 19 20 20 21 22 23 23 24 25 26 26 27 27 28 29 30 30 30 30 31 32 33 33 33 34 34 35 35 36 36 36 36 36 36 37 37 38
20 20 20 18 17 17 19 21 21 21 22 23 23 23 23 24 25 26 26 26 28 28 28 29 29 30 31 31 32 32 33 34 34 34 34 35 35 35 35 35 35 35 36 37
19 19 19 18 18 17 19 20 21 22 22 23 24 24 24 24 25 25 26 26 27 28 28 28 29 30 30 31 31 31 32 32 33 33 34 34 35 35 35 35 35 35 36 36
20 20 19 18 19 19 20 20 21 21 22 22 23 23 24 24 25 25 25 26 27 27 27 28 28 29 31 31 31 32 33 33 34 34 34 34 35 36 36 36 36 35 35 35
21 21 20 20 21 21 21 22 22 23 23 23 23 23 23 24 25 25 25 26 26 28 28 28 29 30 30 31 31 32 33 33 34 35 35 35 35 36 36 36 36 36 35 35
22 21 22 22 22 23 23 23 24 24 24 24 25 25 25 25 26 26 25 25 26 27 27 28 29 30 31 31 31 32 33 34 34 35 34 34 35 35 35 35 35 35 35 35
24 23 24 24 24 24 24 24 24 25 25 25 26 26 26 26 26 26 26 26 26 26 27 27 28 30 31 32 33 34 34 34 35 35 34 33 33 32 32 33 33 33 33 33
25 24 25 24 25 25 25 25 25 26 26 26 27 26 25 25 25 26 27 26 27 27 27 27 28 29 30 31 33 33 34 34 34 34 33 32 32 31 31 31 31 31 32 33
25 25 26 25 25 26 26 26 26 26 26 26 26 25 24 24 25 26 27 27 27 27 27 28 28 29 29 30 31 31 32 32 33 32 31 31 31 30 30 30 30 29 30 31
25 26 26 26 26 26 26 26 26 25 25 25 24 24 24 24 24 25 26 26 26 27 27 27 28 28 29 29 29 29 29 30 31 30 30 30 29 30 30 29 29 29 29 29
26 26 26 26 26 26 26 25 25 25 24 24 24 24 25 25 25 25 25 25 25 25 26 26 26 27 28 28 28 28 27 28 29 29 29 29 29 29 29 29 29 29 28 28
26 26 26 26 26 26 26 25 25 25 25 24 25 25 26 26 26 26 25 25 24 24 24 25 25 25 26 27 27 27 27 27 27 27 27 27 27 28 28 28 29 28 28 27
26 26 26 26 26 26 26 26 26 26 26 26 26 27 27 28 28 27 27 27 26 25 25 25 26 26 26 27 27 26 26 25 25 25 25 26 26 27 27 27 27 26 26 26
26 26 25 25 25 25 26 26 27 27 27 27 27 28 28 28 28 28 28 27 27 26 26 26 26 26 26 26 26 25 25 24 24 24 24 24 24 24 25 25 25 25 24 23
26 26 26 26 26 26 27 27 27 27 27 27 28 28 28 29 28 28 28 27 26 26 26 26 25 25 25 25 25 24 23 23 23 22 23 23 23 23 23 22 21 21 21 21
25 26 26 27 27 27 27 27 27 27 27 27 28 28 28 28 27 27 26 26 26 26 26 26 26 25 25 24 24 23 22 22 22 22 22 23 22 21 21 21 20 19 20 19
25 26 27 27 27 27 27 27 26 26 26 26 26 26 26 26 26 26 26 26 26 26 26 25 25 24 24 23 22 21 20 20 20 21 21 21 21 20 20 20 20 19 19 19
25 25 25 26 26 26 26 26 26 26 25 25 25 25 25 24 24 24 24 24 24 24 24 24 23 22 21 20 19 18 18 18 18 19 19 20 20 19 19 19 19 19 18 18
24 23 23 24 24 24 24 24 24 24 23 23 22 22 23 22 22 22 22 22 22 22 22 21 20 19 19 18 18 17 17 17 17 17 17 17 18 18 17 17 17 17 17 17
24 23 23 23 23 23 22 22 22 22 21 21 20 20 20 20 20 20 20 20 20 20 19 18 18 18 17 17 17 18 18 17 16 16 16 17 17 16 16 15 15 15 16 17
24 24 23 22 22 21 21 21 21 21 21 20 20 20 19 19 19 19 18 18 18 17 17 16 16 16 16 17 17 17 17 16 16 16 16 16 16 15 15 15 15 15 16 16
23 23 23 22 22 21 20 20 19 20 20 19 19 19 19 18 18 17 17 16 16 16 15 15 15 16 16 16 16 16 16 16 15 15 14 14 14 14 14 14 14 15 15 15
23 22 22 22 21 20 20 19 19 18 18 18 18 18 18 18 17 17 16 16 15 15 15 15 15 15 15 15 14 14 15 15 14 14 13 13 13 13 13 13 13 14 13 13
Wind_Direction
281 278 273 267 262 262 263 266 269 269 270 268 268 266 266 265 258 255 255 254 253 252 254 254 254 255 256 256 257 257 258 258 258 258 259 261 261 262 263 265 266 267 268 269
281 276 273 270 267 265 265 268 270 270 270 269 268 265 265 264 261 258 256 255 254 254 255 255 254 254 256 256 256 257 258 259 258 259 261 261 262 263 264 265 266 268 270 270
280 279 276 271 269 269 270 272 274 274 273 272 270 266 264 263 262 260 258 256 256 256 257 256 256 256 257 256 256 256 256 257 258 260 261 262 263 265 266 265 267 268 269 270
280 280 280 280 274 273 273 274 276 277 274 272 271 268 265 263 262 261 260 259 259 259 258 259 259 258 259 258 258 259 259 259 260 261 263 263 263 264 266 266 267 268 269 271
283 283 282 282 280 276 273 273 275 277 276 272 271 271 270 266 264 263 262 262 263 262 261 261 261 261 263 262 262 262 262 262 263 264 265 264 264 264 265 267 268 269 269 270
283 284 284 284 281 276 276 277 278 278 277 275 274 275 274 271 268 264 263 264 264 265 264 263 264 265 266 265 265 264 263 263 264 265 265 265 264 265 266 267 269 270 270 270
282 283 282 284 282 280 278 278 279 280 278 276 275 276 275 272 271 268 266 266 266 268 266 265 266 265 267 268 267 265 264 265 264 263 265 267 266 267 268 270 271 271 270 271
278 279 282 283 283 283 282 280 280 282 281 279 278 277 276 274 273 271 270 270 270 267 266 266 267 268 269 270 268 266 265 265 265 265 266 268 270 269 269 270 271 270 270 271
274 277 279 278 280 282 282 281 280 280 280 280 279 278 278 277 274 273 272 271 272 270 267 266 266 268 269 269 269 268 267 267 267 267 267 268 270 270 269 269 271 269 269 270
274 276 278 279 280 282 283 284 282 280 277 276 278 279 278 276 274 273 274 274 275 273 268 267 267 267 268 269 269 269 268 268 268 268 268 270 271 270 269 269 270 270 269 271
273 276 278 279 279 280 281 282 282 280 278 277 279 281 279 277 273 271 273 274 274 274 271 269 268 267 267 269 270 270 269 268 268 268 268 269 270 269 269 270 271 270 270 271
274 275 276 278 277 277 278 279 280 280 279 280 282 283 280 276 273 272 272 272 273 274 272 271 271 271 270 270 269 269 269 268 269 269 268 269 268 267 267 269 271 270 269 271
275 275 276 277 277 277 276 277 278 279 279 279 281 282 280 278 276 274 273 272 273 274 273 272 273 272 271 270 270 270 269 268 268 267 267 267 266 266 266 268 269 269 270 272
276 277 276 276 276 277 277 277 277 278 278 278 280 280 280 280 279 278 276 275 275 275 274 274 275 274 272 271 271 271 270 269 267 265 265 265 264 264 265 266 267 267 270 271
276 277 278 278 277 277 277 277 276 276 278 276 276 279 281 281 280 280 280 279 278 277 276 276 276 275 274 273 271 270 271 271 269 268 267 265 264 266 265 266 267 268 269 268
278 279 279 278 277 277 276 276 276 275 275 276 276 278 279 279 280 280 280 281 280 278 277 277 277 277 275 273 273 272 272 272 271 269 267 265 265 267 267 267 266 268 267 266
277 277 277 277 276 276 276 276 277 275 274 276 278 278 279 279 280 279 280 280 280 280 279 279 279 279 277 275 274 273 272 270 270 267 266 266 266 265 266 266 265 267 267 265
274 275 276 277 277 277 277 278 277 276 276 277 278 278 279 280 279 279 278 277 278 278 278 279 280 279 277 275 275 273 271 269 269 267 265 264 265 266 267 266 265 265 263 263
274 274 276 277 278 278 278 278 277 277 278 279 279 279 280 281 281 280 278 276 276 276 275 276 276 276 276 276 274 272 270 267 266 266 265 264 265 265 265 266 266 262 260 261
279 277 277 278 279 279 279 279 278 279 280 280 281 281 282 283 283 280 278 276 276 275 274 273 274 274 273 273 271 269 269 267 266 266 265 263 262 262 265 267 264 260 258 261
283 280 278 278 278 278 279 279 280 281 282 282 281 282 283 284 283 281 278 277 275 275 274 272 272 271 271 269 267 265 264 264 265 266 264 261 262 265 267 266 263 260 261 262
285 283 279 278 278 278 279 280 281 283 284 283 282 281 282 284 284 282 280 278 276 275 273 271 270 270 270 268 266 262 261 261 262 265 264 262 262 264 264 262 261 260 261 260
285 284 281 279 279 279 280 281 282 283 284 283 281 281 282 284 285 284 281 279 277 276 274 272 270 268 267 266 264 261 260 261 262 264 265 263 263 262 260 260 260 260 260 260
284 283 281 281 282 282 282 282 283 282 282 284 283 282 283 285 285 283 281 278 276 276 275 273 270 267 265 265 264 261 260 263 264 266 267 265 262 260 259 258 259 260 261 262
282 280 279 280 280 281 281 281 281 281 281 282 282 283 284 285 284 282 281 279 276 274 273 271 268 266 266 266 263 260 259 261 264 267 268 264 259 257 256 257 259 261 263 266
282 280 278 277 278 278 280 281 281 280 280 281 281 281 282 284 284 282 280 278 277 274 271 269 268 268 267 266 263 259 257 258 262 265 266 262 259 257 256 259 263 264 264 266
283 281 278 276 275 276 277 279 281 281 281 280 280 280 281 282 281 278 277 276 275 273 270 269 268 268 266 264 263 260 257 255 258 260 262 261 258 257 258 261 263 263 263 265
Height
5583 5582 5581 5581 5581 5581 5581 5581 5581 5582 5581 5583 5583 5582 5583 5584 5585 5587 5588 5590 5592 5594 5595 5597 5599 5601 5603 5604 5606 5608 5609 5611 5613 5615 5617 5619 5621 5622 5624 5626 5627 5629 5629 5630
5578 5577 5576 5576 5577 5576 5576 5576 5576 5575 5576 5577 5576 5577 5577 5578 5579 5580 5582 5583 5584 5586 5587 5589 5591 5593 5594 5596 5597 5599 5600 5602 5604 5605 5607 5609 5610 5613 5614 5615 5616 5618 5619 5619
5573 5573 5571 5572 5573 5572 5571 5571 5571 5570 5572 5571 5570 5570 5570 5571 5572 5573 5575 5576 5577 5578 5579 5581 5582 5584 5585 5587 5588 5590 5591 5593 5595 5596 5598 5599 5601 5603 5604 5605 5606 5607 5608 5608
5568 5568 5567 5571 5568 5567 5566 5566 5565 5565 5565 5564 5564 5564 5565 5565 5565 5566 5567 5568 5569 5570 5571 5572 5573 5575 5576 5578 5579 5581 5582 5584 5586 5587 5588 5590 5591 5593 5594 5595 5596 5597 5597 5597
5563 5562 5562 5564 5563 5562 5561 5561 5561 5560 5560 5559 5559 5559 5560 5559 5559 5559 5560 5561 5562 5562 5563 5564 5566 5567 5568 5569 5570 5572 5573 5574 5576 5578 5579 5580 5581 5582 5584 5585 5586 5586 5586 5586
5558 5557 5557 5560 5558 5556 5557 5556 5556 5555 5554 5554 5553 5553 5555 5553 5553 5553 5553 5554 5554 5555 5556 5557 5558 5558 5560 5561 5561 5562 5564 5565 5566 5568 5569 5570 5571 5572 5573 5574 5575 5576 5576 5576
5553 5552 5552 5554 5552 5552 5553 5552 5551 5549 5548 5548 5547 5547 5547 5546 5546 5546 5546 5547 5547 5547 5548 5549 5549 5551 5551 5552 5553 5554 5555 5556 5557 5558 5559 5560 5561 5562 5563 5564 5565 5566 5566 5566
5549 5548 5551 5548 5547 5547 5547 5545 5544 5543 5542 5541 5541 5540 5540 5540 5539 5539 5539 5539 5539 5540 5540 5541 5542 5542 5543 5544 5545 5545 5546 5547 5548 5549 5549 5550 5551 5552 5553 5554 5554 5555 5555 5555
5545 5546 5544 5542 5541 5540 5540 5539 5538 5537 5537 5535 5534 5534 5534 5533 5533 5532 5532 5532 5532 5532 5532 5533 5533 5534 5535 5535 5536 5536 5537 5537 5538 5539 5539 5540 5541 5542 5542 5543 5543 5544 5544 5544
5538 5538 5537 5536 5535 5534 5534 5533 5532 5530 5530 5529 5528 5527 5527 5526 5525 5525 5524 5524 5524 5524 5524 5524 5524 5525 5526 5526 5526 5527 5528 5528 5528 5529 5529 5530 5530 5531 5531 5532 5533 5533 5533 5534
5531 5531 5530 5530 5528 5528 5527 5526 5525 5524 5523 5522 5521 5520 5520 5519 5518 5518 5517 5517 5516 5516 5516 5516 5515 5516 5516 5516 5516 5517 5518 5518 5518 5519 5519 5520 5520 5520 5521 5522 5522 5523 5523 5523
5524 5524 5523 5523 5521 5520 5519 5519 5517 5516 5516 5515 5514 5513 5512 5511 5511 5510 5510 5509 5509 5508 5508 5507 5507 5507 5506 5506 5507 5507 5507 5508 5508 5509 5509 5510 5510 5511 5511 5512 5512 5512 5513 5513
5516 5516 5515 5514 5513 5512 5512 5511 5510 5509 5509 5508 5507 5506 5505 5504 5503 5503 5502 5501 5501 5500 5499 5499 5498 5498 5497 5497 5497 5497 5497 5498 5498 5499 5499 5500 5501 5502 5502 5503 5503 5503 5503 5504
5509 5508 5507 5507 5506 5505 5504 5503 5502 5502 5501 5500 5499 5499 5498 5497 5496 5495 5494 5493 5493 5492 5491 5490 5490 5489 5488 5488 5488 5488 5488 5488 5488 5489 5489 5490 5491 5492 5493 5494 5494 5494 5494 5495
5500 5500 5499 5498 5497 5496 5496 5495 5495 5494 5493 5493 5492 5491 5490 5490 5489 5488 5486 5485 5484 5484 5483 5482 5481 5480 5479 5479 5478 5478 5478 5478 5478 5479 5479 5480 5481 5482 5483 5484 5485 5486 5486 5486
5492 5491 5490 5490 5489 5488 5488 5487 5486 5486 5486 5485 5485 5484 5483 5482 5481 5480 5479 5478 5477 5476 5475 5474 5473 5472 5471 5470 5470 5470 5469 5469 5469 5470 5470 5471 5472 5473 5474 5475 5476 5477 5478 5478
5484 5483 5482 5482 5481 5480 5479 5479 5478 5478 5478 5478 5477 5476 5475 5474 5473 5472 5471 5470 5469 5468 5467 5466 5465 5464 5463 5462 5461 5461 5461 5461 5461 5462 5462 5463 5464 5465 5466 5466 5467 5468 5469 5470
5475 5475 5474 5474 5473 5472 5472 5471 5470 5470 5470 5469 5469 5468 5467 5466 5465 5464 5463 5462 5461 5460 5458 5457 5456 5455 5454 5453 5453 5453 5453 5454 5454 5455 5455 5456 5457 5457 5458 5458 5459 5460 5461 5462
5467 5467 5466 5466 5465 5464 5464 5463 5462 5462 5461 5461 5460 5460 5459 5458 5456 5455 5454 5453 5452 5451 5450 5449 5448 5447 5446 5445 5445 5445 5446 5446 5447 5448 5448 5449 5450 5450 5451 5451 5452 5452 5453 5454
5460 5459 5458 5458 5457 5457 5456 5455 5455 5454 5453 5452 5452 5451 5450 5449 5448 5447 5446 5445 5444 5443 5442 5441 5440 5439 5438 5438 5437 5438 5438 5439 5439 5440 5441 5442 5443 5443 5444 5444 5445 5446 5447 5448
5453 5452 5451 5450 5449 5449 5448 5447 5447 5446 5445 5444 5443 5442 5442 5441 5439 5438 5437 5437 5436 5434 5434 5433 5432 5431 5430 5430 5430 5430 5431 5432 5432 5433 5434 5435 5436 5436 5437 5438 5438 5439 5440 5441
5445 5444 5443 5442 5441 5441 5440 5440 5439 5438 5437 5436 5435 5434 5434 5433 5432 5430 5429 5428 5428 5426 5426 5425 5424 5423 5423 5423 5424 5424 5425 5425 5426 5427 5427 5428 5429 5430 5431 5432 5433 5433 5434 5435
5438 5437 5436 5435 5434 5433 5433 5432 5431 5430 5430 5429 5428 5427 5426 5425 5424 5423 5422 5421 5420 5419 5418 5418 5417 5417 5417 5417 5418 5419 5419 5420 5420 5421 5421 5422 5423 5424 5425 5426 5427 5428 5429 5430
5430 5429 5429 5428 5427 5426 5426 5425 5424 5423 5423 5422 5421 5420 5419 5418 5417 5416 5415 5414 5413 5413 5412 5411 5411 5411 5411 5412 5412 5413 5414 5414 5415 5415 5416 5416 5417 5418 5419 5421 5422 5423 5424 5425
5422 5422 5421 5420 5420 5419 5419 5418 5418 5417 5416 5416 5415 5414 5413 5412 5411 5410 5409 5409 5408 5407 5407 5406 5406 5406 5406 5407 5407 5408 5408 5409 5410 5410 5411 5411 5412 5413 5415 5416 5417 5418 5419 5419
5415 5414 5413 5413 5413 5412 5412 5412 5411 5411 5410 5409 5409 5408 5407 5406 5405 5404 5404 5403 5402 5402 5401 5401 5401 5401 5401 5401 5402 5403 5403 5404 5405 5405 5406 5407 5408 5409 5410 5411 5412 5413 5414 5414
5407 5406 5406 5406 5405 5405 5405 5405 5405 5404 5404 5403 5402 5402 5401 5400 5399 5399 5398 5398 5397 5397 5397 5396 5396 5396 5396 5397 5397 5398 5398 5399 5400 5401 5402 5402 5404 5405 5406 5407 5408 5408 5409 5410